Wenatchee, WA
on Thursday, February 7, 2013

Thursday
Previous Day Next Day
Daily Summary
 ActualAverageRecord
Temperature
Mean Temperature °F 30°F  
Max Temperature 41°F 37°F 55°F (1999)
Min Temperature 33°F 23°F 3°F (1969)
Degree Days
Heating Degree Days 28 35  
Month to date heating degree days 229 245  
Since 1 July heating degree days 4172 4502  
Cooling Degree Days 0 0  
Month to date cooling degree days 0 0  
Year to date cooling degree days 0 0  
Moisture
Dew Point 27°F   
Average Humidity 69    
Maximum Humidity 92    
Minimum Humidity 39    
Precipitation
Precipitation 0.03 in 0.05 in 0.38 in (1996)
Month to date precipitation 0.03 0.37  
Year to date precipitation 1.49 2.24  
Snow
Snow T in 0.30 in in ()
Month to date snowfall T 2.1  
Since 1 July snowfall 43.8 42.5  
Snow Depth 3.00 in   
Wind
Wind Speed 3 mph   
Max Wind Speed 10 mph   
Max Gust Speed 31 mph   
Visibility 10 miles   
Events     

Key: T is trace of precipitation, MM is missing value
Source: NWS Daily Summary
Time(PST)TemperatureDew PointHumidity Pressure Visibility Wind DirectionWind SpeedGust SpeedPrecipitationEvents Conditions
12:55 AM 33.1°F 30.0°F 89% 29.93 in 10.0 miles Calm Calm - N/A   Scattered Clouds
1:55 AM 35.1°F 30.9°F 85% 29.91 in 10.0 miles NNW 3.5 mph - N/A   Mostly Cloudy
2:55 AM 34.0°F 30.9°F 89% 29.89 in 10.0 miles Calm Calm - N/A   Scattered Clouds
3:55 AM 34.0°F 30.9°F 89% 29.88 in 10.0 miles NE 3.5 mph - N/A   Mostly Cloudy
4:55 AM 33.1°F 30.0°F 89% 29.89 in 10.0 miles Calm Calm - N/A   Clear
5:55 AM 32.0°F 30.0°F 92% 29.90 in 9.0 miles Calm Calm - N/A   Mostly Cloudy
6:55 AM 32.0°F 28.9°F 88% 29.92 in 9.0 miles Calm Calm - N/A   Mostly Cloudy
7:55 AM 30.9°F 28.9°F 92% 29.94 in 4.0 miles WSW 4.6 mph - N/A   Clear
8:55 AM 35.1°F 30.9°F 85% 29.94 in 10.0 miles Calm Calm - N/A   Clear
9:55 AM 37.9°F 33.1°F 83% 29.95 in 10.0 miles Calm Calm - N/A   Clear
10:55 AM 41.0°F 34.0°F 76% 29.96 in 10.0 miles Calm Calm - N/A   Clear
11:55 AM 43.0°F 32.0°F 65% 29.95 in 10.0 miles SSE 5.8 mph - N/A   Clear
12:55 PM 46.0°F 30.0°F 54% 29.93 in 10.0 miles Variable 3.5 mph - N/A   Clear
1:55 PM 46.9°F 23.0°F 39% 29.93 in 10.0 miles NNW 9.2 mph - N/A   Clear
2:55 PM 46.9°F 24.1°F 41% 29.94 in 10.0 miles NW 10.4 mph 31.1 mph N/A   Clear
3:55 PM 46.0°F 23.0°F 40% 29.95 in 10.0 miles West 10.4 mph - N/A   Clear
4:55 PM 44.1°F 21.9°F 42% 29.97 in 10.0 miles WNW 8.1 mph - N/A   Clear
5:55 PM 39.9°F 21.9°F 49% 29.99 in 10.0 miles WNW 3.5 mph - N/A   Clear
6:55 PM 37.9°F 24.1°F 57% 30.01 in 10.0 miles West 4.6 mph - N/A   Scattered Clouds
7:55 PM 37.9°F 25.0°F 60% 30.04 in 10.0 miles WNW 5.8 mph - N/A   Scattered Clouds
8:55 PM 36.0°F 24.1°F 62% 30.06 in 10.0 miles NW 4.6 mph - N/A   Scattered Clouds
9:55 PM 37.0°F 24.1°F 59% 30.07 in 10.0 miles NW 6.9 mph - N/A   Overcast
10:55 PM 36.0°F 24.1°F 62% 30.08 in 10.0 miles NW 5.8 mph - N/A   Clear
11:55 PM 36.0°F 24.1°F 62% 30.09 in 10.0 miles NW 8.1 mph - N/A   Clear
Moon Phase
Feb. 07 Feb. 10 Feb. 17 Feb. 25 Mar. 04
Sunrise:07:18 AM (PST) Moon Rise:05:08 AM (PST)2/7
Sunset:05:12 PM (PST) Moon Set:02:37 PM (PST)2/7

Copyright © 2014 The Weather Underground, Inc.